Location: Eboldshausen
(51.7766°N, 10.0050°E)
Time: 07:07:12
(UTC+00:00)

Cosmos 2084 Rocket - Pass Details

Date: 15 November 2025
Orbit: 548 x 566 km, 62.8° (Epoch: 16 December)

Event Time Altitude Azimuth Distance (km) Brightness Sun altitude
Rises 16:42:30 0° 216° (SW) 2,731 7.8 -11.2°
Reaches altitude 10° 16:44:43 10° 214° (SW) 1,843 6.8 -11.6°
Maximum altitude 16:48:50 67° 133° (SE) 612 3.4 -12.2°
Enters shadow 16:51:56 17° 52° (NE) 1,448 4.9 -12.6°
